Weather History for KOLY - November, 2012

Change the Weather History Date:

Sunday, November 11, 2012

  Actual Average (KEVV) Record (KEVV)
Temperature  
Mean Temperature 60 °F 48 °F  
Max Temperature 68 °F 59 °F 79 °F (2010)
Min Temperature 51 °F 38 °F 19 °F (1960)
Degree Days  
Heating Degree Days 6 17  
Month to date heating degree days 161  
Since 1 July heating degree days 464  
Cooling Degree Days 0 0  
Month to date cooling degree days 0  
Year to date cooling degree days 1395  
Growing Degree Days 10 (Base 50)    
Moisture  
Dew Point 50 °F    
Average Humidity 68    
Maximum Humidity 100    
Minimum Humidity 55    
Precipitation  
Precipitation 0.23 in 0.13 in 2.14 in (2004)
Month to date precipitation 1.44  
Year to date precipitation 38.66  
Snow  
Snow 0.00 in 0.00 in 0.10 in (1995)
Month to date snowfall 0.0  
Since 1 July snowfall 0.2  
Since 1 September snowfall 0.2  
Snow Depth -    
Sea Level Pressure  
Sea Level Pressure 30.00 in    
Wind  
Wind Speed 12 mph (SSE)    
Max Wind Speed 20 mph    
Max Gust Speed 31 mph    
Visibility 10 miles    
Events Rain    
T = Trace of Precipitation, MM = Missing Value Source: NWS Daily Summary

Daily Weather History Graph

Daily Weather History Graph

Search for Another Location

Airport or City:

Trip Planner

Search our weather history database for the weather conditions in past years. The results will help you decide how hot, cold, wet, or windy it might be!

Date:

Astronomy

Nov. 11, 2012 Rise Set
Actual Time 6:31 AM CST 4:42 PM CST
Civil Twilight 6:02 AM CST 5:10 PM CST
Nautical Twilight 5:30 AM CST 5:42 PM CST
Astronomical Twilight 4:59 AM CST 6:13 PM CST
Moon 3:46 AM CST (11/11) 3:04 PM CST (11/11)
Length of Visible Light 11h 07m
Length of Day
10h 10m
Waning Crescent, 7% of the Moon is Illuminated
Nov 11
Waning Crescent
Nov 13
New
Nov 20
First Quarter
Nov 28
Full
Dec 6
Last Quarter

Hourly Weather History & Observations

Time (CST) Temp. Dew Point Humidity Pressure Visibility Wind Dir Wind Speed Gust Speed Precip Events Conditions
12:15 AM 60.8 °F 44.6 °F 55% 30.04 in 10.0 mi South 11.5 mph - N/A   Clear
12:35 AM 59.0 °F 44.6 °F 59% 30.04 in 10.0 mi South 11.5 mph 18.4 mph N/A   Clear
12:55 AM 59.0 °F 44.6 °F 59% 30.04 in 10.0 mi SSE 12.7 mph 17.3 mph N/A   Clear
1:15 AM 59.0 °F 44.6 °F 59% 30.04 in 10.0 mi South 12.7 mph 19.6 mph N/A   Clear
1:35 AM 59.0 °F 46.4 °F 63% 30.04 in 10.0 mi South 11.5 mph 18.4 mph N/A   Clear
1:55 AM 59.0 °F 46.4 °F 63% 30.04 in 10.0 mi South 11.5 mph 16.1 mph N/A   Clear
2:15 AM 57.2 °F 46.4 °F 67% 30.05 in 10.0 mi SSE 10.4 mph - N/A   Clear
2:35 AM 57.2 °F 46.4 °F 67% 30.06 in 10.0 mi SSE 9.2 mph 16.1 mph N/A   Clear
2:55 AM 57.2 °F 46.4 °F 67% 30.06 in 10.0 mi SSE 8.1 mph - N/A   Clear
3:15 AM 57.2 °F 46.4 °F 67% 30.06 in 10.0 mi SSE 9.2 mph - N/A   Clear
3:35 AM 57.2 °F 46.4 °F 67% 30.06 in 10.0 mi SSE 9.2 mph - N/A   Clear
3:55 AM 57.2 °F 44.6 °F 63% 30.07 in 10.0 mi SSE 9.2 mph - N/A   Clear
4:15 AM 57.2 °F 44.6 °F 63% 30.07 in 10.0 mi SSE 9.2 mph - N/A   Clear
4:35 AM 57.2 °F 44.6 °F 63% 30.07 in 10.0 mi SSE 9.2 mph 16.1 mph N/A   Scattered Clouds
4:55 AM 57.2 °F 46.4 °F 67% 30.07 in 10.0 mi SSE 10.4 mph - N/A   Scattered Clouds
5:15 AM 57.2 °F 46.4 °F 67% 30.07 in 10.0 mi SSE 11.5 mph 18.4 mph N/A   Clear
5:35 AM 57.2 °F 46.4 °F 67% 30.06 in 10.0 mi SSE 10.4 mph - N/A   Clear
5:55 AM 57.2 °F 46.4 °F 67% 30.07 in 10.0 mi SE 10.4 mph 17.3 mph N/A   Clear
6:15 AM 55.4 °F 46.4 °F 72% 30.07 in 10.0 mi SE 11.5 mph - N/A   Clear
6:35 AM 55.4 °F 46.4 °F 72% 30.07 in 10.0 mi SE 10.4 mph - N/A   Mostly Cloudy
6:55 AM 55.4 °F 46.4 °F 72% 30.07 in 10.0 mi SSE 11.5 mph - N/A   Overcast
7:15 AM 57.2 °F 46.4 °F 67% 30.07 in 10.0 mi SSE 13.8 mph 18.4 mph N/A   Overcast
7:35 AM 57.2 °F 46.4 °F 67% 30.07 in 10.0 mi SSE 12.7 mph 19.6 mph N/A   Overcast
7:55 AM 59.0 °F 48.2 °F 67% 30.09 in 10.0 mi SSE 12.7 mph - N/A   Overcast
8:15 AM 59.0 °F 48.2 °F 67% 30.10 in 10.0 mi South 10.4 mph 17.3 mph N/A   Overcast
8:35 AM 60.8 °F 48.2 °F 63% 30.08 in 10.0 mi SSE 11.5 mph 18.4 mph N/A   Overcast
8:55 AM 60.8 °F 48.2 °F 63% 30.07 in 10.0 mi SSE 12.7 mph - N/A   Overcast
9:15 AM 62.6 °F 50.0 °F 63% 30.08 in 10.0 mi SSE 12.7 mph 18.4 mph N/A   Overcast
9:35 AM 62.6 °F 50.0 °F 63% 30.07 in 10.0 mi SSE 18.4 mph 26.5 mph N/A   Overcast
9:55 AM 62.6 °F 51.8 °F 68% 30.07 in 10.0 mi South 13.8 mph 26.5 mph N/A   Overcast
10:15 AM 64.4 °F 51.8 °F 64% 30.06 in 10.0 mi South 13.8 mph 25.3 mph N/A   Overcast
10:35 AM 64.4 °F 51.8 °F 64% 30.05 in 10.0 mi SSE 19.6 mph 26.5 mph N/A   Overcast
10:55 AM 66.2 °F 51.8 °F 60% 30.04 in 10.0 mi SSE 15.0 mph 21.9 mph N/A   Mostly Cloudy
11:15 AM 64.4 °F 51.8 °F 64% 30.03 in 10.0 mi South 18.4 mph 27.6 mph N/A   Mostly Cloudy
11:35 AM 66.2 °F 51.8 °F 60% 30.02 in 10.0 mi South 13.8 mph 27.6 mph N/A   Mostly Cloudy
11:55 AM 64.4 °F 51.8 °F 64% 30.00 in 10.0 mi SSE 18.4 mph 28.8 mph N/A   Scattered Clouds
12:15 PM 66.2 °F 51.8 °F 60% 29.99 in 10.0 mi SSE 17.3 mph 24.2 mph N/A   Scattered Clouds
12:35 PM 66.2 °F 53.6 °F 64% 29.98 in 10.0 mi SSE 18.4 mph 26.5 mph N/A   Scattered Clouds
12:55 PM 66.2 °F 53.6 °F 64% 29.97 in 10.0 mi SSE 19.6 mph 26.5 mph N/A   Scattered Clouds
1:15 PM 66.2 °F 53.6 °F 64% 29.97 in 10.0 mi SSE 15.0 mph 29.9 mph N/A   Scattered Clouds
1:35 PM 66.2 °F 53.6 °F 64% 29.97 in 10.0 mi SSE 15.0 mph 29.9 mph N/A   Scattered Clouds
1:55 PM 66.2 °F 53.6 °F 64% 29.95 in 10.0 mi SSE 17.3 mph 24.2 mph N/A   Clear
2:15 PM 66.2 °F 53.6 °F 64% 29.95 in 10.0 mi South 16.1 mph 24.2 mph N/A   Scattered Clouds
2:35 PM 66.2 °F 53.6 °F 64% 29.93 in 10.0 mi SSE 16.1 mph 24.2 mph N/A   Scattered Clouds
2:55 PM 68.0 °F 53.6 °F 60% 29.92 in 10.0 mi SSE 18.4 mph 23.0 mph N/A   Clear
3:15 PM 66.2 °F 53.6 °F 64% 29.91 in 10.0 mi SSE 18.4 mph 25.3 mph N/A   Clear
3:35 PM 66.2 °F 51.8 °F 60% 29.92 in 10.0 mi SSE 17.3 mph 31.1 mph N/A   Clear
3:55 PM 66.2 °F 51.8 °F 60% 29.91 in 10.0 mi SSE 17.3 mph 25.3 mph N/A   Clear
4:15 PM 66.2 °F 51.8 °F 60% 29.91 in 10.0 mi SSE 18.4 mph 27.6 mph N/A   Clear
4:35 PM 66.2 °F 51.8 °F 60% 29.89 in 10.0 mi SSE 19.6 mph 25.3 mph N/A   Scattered Clouds
4:55 PM 66.2 °F 51.8 °F 60% 29.90 in 10.0 mi SSE 16.1 mph 21.9 mph N/A   Overcast
5:15 PM 66.2 °F 51.8 °F 60% 29.92 in 10.0 mi SSE 13.8 mph 18.4 mph N/A   Overcast
5:35 PM 66.2 °F 51.8 °F 60% 29.91 in 10.0 mi SSE 13.8 mph 23.0 mph N/A Rain Light Rain
5:55 PM 66.2 °F 51.8 °F 60% 29.91 in 10.0 mi SSE 13.8 mph 27.6 mph N/A Rain Light Rain
6:15 PM 66.2 °F 51.8 °F 60% 29.91 in 10.0 mi South 17.3 mph 24.2 mph N/A   Overcast
6:35 PM 64.4 °F 53.6 °F 68% 29.92 in 10.0 mi South 11.5 mph 19.6 mph N/A Rain Light Rain
6:55 PM 64.4 °F 53.6 °F 68% 29.93 in 10.0 mi South 13.8 mph - N/A Rain Light Rain
7:15 PM 64.4 °F 53.6 °F 68% 29.93 in 10.0 mi South 8.1 mph - N/A Rain Light Rain
7:35 PM 64.4 °F 51.8 °F 64% 29.92 in 10.0 mi South 10.4 mph - N/A   Overcast
7:55 PM 64.4 °F 51.8 °F 64% 29.93 in 10.0 mi South 9.2 mph 18.4 mph N/A   Overcast
8:15 PM 64.4 °F 51.8 °F 64% 29.93 in 10.0 mi South 12.7 mph 17.3 mph N/A   Overcast
8:35 PM 64.4 °F 53.6 °F 68% 29.94 in 10.0 mi South 9.2 mph 21.9 mph N/A   Overcast
8:55 PM 62.6 °F 55.4 °F 77% 29.95 in 10.0 mi WSW 12.7 mph 19.6 mph N/A Rain Light Rain
9:15 PM 55.4 °F 55.4 °F 100% 29.97 in 10.0 mi West 11.5 mph 15.0 mph N/A Rain Rain
9:35 PM 55.4 °F 55.4 °F 100% 29.99 in 7.0 mi West 11.5 mph - N/A Rain Rain
9:55 PM - - N/A% 29.99 in - WNW 13.8 mph - N/A   Unknown
10:15 PM 53.6 °F 53.6 °F 100% 29.99 in - WNW 13.8 mph - 0.03 in   Overcast
10:35 PM 53.6 °F 53.6 °F 100% 29.98 in 10.0 mi WNW 4.6 mph - 0.08 in Rain Rain
10:55 PM 53.6 °F 53.6 °F 100% 29.99 in 7.0 mi South 3.5 mph - 0.02 in Rain Rain
11:35 PM 51.8 °F 51.8 °F 100% 29.98 in 10.0 mi West 6.9 mph - 0.15 in Rain Light Rain
11:55 PM 51.8 °F 51.8 °F 100% 29.99 in 10.0 mi West 8.1 mph - N/A Rain Rain